TimeCDT,TemperatureF,Dew PointF,Humidity,Sea Level PressureIn,VisibilityMPH,Wind Direction,Wind SpeedMPH,Gust SpeedMPH,PrecipitationIn,Events,Conditions,WindDirDegrees,DateUTC
12:15 AM,55.4,46.4,72,29.86,10.0,WNW,4.6,-,N/A,,Clear,300,2012-10-02 05:15:00
12:35 AM,53.6,46.4,77,29.86,10.0,WNW,3.5,-,N/A,,Clear,300,2012-10-02 05:35:00
12:55 AM,55.4,44.6,67,29.86,10.0,NW,5.8,-,N/A,,Clear,310,2012-10-02 05:55:00
1:35 AM,53.6,42.8,67,29.86,10.0,WNW,5.8,-,N/A,,Scattered Clouds,290,2012-10-02 06:35:00
1:55 AM,53.6,42.8,67,29.86,10.0,WNW,6.9,-,N/A,,Clear,290,2012-10-02 06:55:00
2:15 AM,51.8,42.8,71,29.87,10.0,WNW,5.8,-,N/A,,Clear,290,2012-10-02 07:15:00
2:35 AM,51.8,41.0,67,29.87,10.0,NW,4.6,-,N/A,,Clear,310,2012-10-02 07:35:00
2:55 AM,51.8,41.0,67,29.87,10.0,NW,4.6,-,N/A,,Clear,310,2012-10-02 07:55:00
3:15 AM,51.8,41.0,67,29.87,10.0,WNW,5.8,-,N/A,,Clear,300,2012-10-02 08:15:00
3:35 AM,51.8,41.0,67,29.87,10.0,WNW,4.6,-,N/A,,Clear,300,2012-10-02 08:35:00
3:55 AM,51.8,41.0,67,29.87,10.0,WNW,5.8,-,N/A,,Clear,300,2012-10-02 08:55:00
4:15 AM,51.8,41.0,67,29.88,10.0,WNW,4.6,-,N/A,,Clear,300,2012-10-02 09:15:00
4:35 AM,51.8,41.0,67,29.88,10.0,NW,3.5,-,N/A,,Clear,310,2012-10-02 09:35:00
4:55 AM,51.8,41.0,67,29.88,10.0,WNW,4.6,-,N/A,,Clear,300,2012-10-02 09:55:00
5:15 AM,51.8,41.0,67,29.88,10.0,WNW,3.5,-,N/A,,Clear,290,2012-10-02 10:15:00
5:35 AM,50.0,41.0,71,29.88,10.0,WNW,4.6,-,N/A,,Clear,290,2012-10-02 10:35:00
5:55 AM,50.0,41.0,71,29.89,10.0,WNW,4.6,-,N/A,,Clear,290,2012-10-02 10:55:00
6:15 AM,50.0,41.0,71,29.90,10.0,WNW,3.5,-,N/A,,Clear,300,2012-10-02 11:15:00
6:35 AM,48.2,41.0,76,29.90,10.0,WNW,4.6,-,N/A,,Clear,290,2012-10-02 11:35:00
6:55 AM,50.0,41.0,71,29.90,10.0,WNW,4.6,-,N/A,,Clear,300,2012-10-02 11:55:00
7:15 AM,50.0,41.0,71,29.91,10.0,WNW,3.5,-,N/A,,Clear,300,2012-10-02 12:15:00
7:35 AM,50.0,41.0,71,29.91,10.0,NW,3.5,-,N/A,,Clear,310,2012-10-02 12:35:00
7:55 AM,50.0,41.0,71,29.91,10.0,WNW,3.5,-,N/A,,Clear,300,2012-10-02 12:55:00
8:15 AM,51.8,41.0,67,29.91,10.0,NW,4.6,-,N/A,,Clear,310,2012-10-02 13:15:00
8:35 AM,53.6,42.8,67,29.92,10.0,NNW,3.5,-,N/A,,Clear,330,2012-10-02 13:35:00
8:55 AM,53.6,42.8,67,29.92,10.0,NW,5.8,-,N/A,,Clear,320,2012-10-02 13:55:00
9:15 AM,55.4,42.8,63,29.92,10.0,NNW,6.9,-,N/A,,Clear,330,2012-10-02 14:15:00
9:35 AM,57.2,44.6,63,29.93,10.0,NNW,8.1,-,N/A,,Clear,330,2012-10-02 14:35:00
9:55 AM,59.0,44.6,59,29.93,10.0,NNW,5.8,-,N/A,,Clear,330,2012-10-02 14:55:00
10:15 AM,59.0,44.6,59,29.93,10.0,NW,6.9,-,N/A,,Clear,320,2012-10-02 15:15:00
10:35 AM,60.8,46.4,59,29.93,10.0,NNW,6.9,-,N/A,,Clear,340,2012-10-02 15:35:00
10:55 AM,62.6,46.4,55,29.93,10.0,NW,5.8,-,N/A,,Clear,310,2012-10-02 15:55:00
11:15 AM,62.6,46.4,55,29.93,10.0,NW,5.8,-,N/A,,Clear,320,2012-10-02 16:15:00
11:35 AM,64.4,46.4,52,29.93,10.0,NNW,5.8,-,N/A,,Clear,330,2012-10-02 16:35:00
11:55 AM,64.4,46.4,52,29.92,10.0,Calm,Calm,-,N/A,,Clear,0,2012-10-02 16:55:00
12:15 PM,66.2,48.2,52,29.92,10.0,NW,5.8,-,N/A,,Clear,310,2012-10-02 17:15:00
12:35 PM,68.0,46.4,46,29.92,10.0,WNW,4.6,-,N/A,,Clear,300,2012-10-02 17:35:00
12:55 PM,69.8,46.4,43,29.91,10.0,NW,4.6,-,N/A,,Clear,310,2012-10-02 17:55:00
1:15 PM,69.8,46.4,43,29.90,10.0,Calm,Calm,-,N/A,,Clear,0,2012-10-02 18:15:00
1:35 PM,71.6,48.2,43,29.89,10.0,NW,4.6,-,N/A,,Clear,310,2012-10-02 18:35:00
1:55 PM,71.6,48.2,43,29.89,10.0,NW,8.1,-,N/A,,Clear,320,2012-10-02 18:55:00
2:15 PM,71.6,48.2,43,29.88,10.0,NW,5.8,-,N/A,,Clear,310,2012-10-02 19:15:00
2:35 PM,71.6,48.2,43,29.87,10.0,NNW,8.1,-,N/A,,Clear,330,2012-10-02 19:35:00
3:35 PM,73.4,48.2,41,29.86,10.0,NNW,9.2,-,N/A,,Clear,330,2012-10-02 20:35:00
3:55 PM,73.4,48.2,41,29.86,10.0,NW,5.8,-,N/A,,Clear,310,2012-10-02 20:55:00
4:15 PM,73.4,48.2,41,29.86,10.0,West,3.5,-,N/A,,Clear,280,2012-10-02 21:15:00
4:35 PM,73.4,48.2,41,29.86,10.0,Calm,Calm,-,N/A,,Clear,0,2012-10-02 21:35:00
4:55 PM,71.6,46.4,41,29.86,10.0,NW,3.5,-,N/A,,Clear,310,2012-10-02 21:55:00
5:15 PM,71.6,48.2,43,29.86,10.0,NW,4.6,-,N/A,,Unknown,310,2012-10-02 22:15:00
5:35 PM,69.8,50.0,49,29.87,10.0,WNW,4.6,-,N/A,,Clear,290,2012-10-02 22:35:00
5:55 PM,71.6,48.2,43,29.87,10.0,WNW,3.5,-,N/A,,Clear,300,2012-10-02 22:55:00
6:15 PM,69.8,50.0,49,29.87,10.0,Calm,Calm,-,N/A,,Clear,0,2012-10-02 23:15:00
6:35 PM,69.8,50.0,49,29.87,10.0,Calm,Calm,-,N/A,,Clear,0,2012-10-02 23:35:00
6:55 PM,68.0,50.0,52,29.87,10.0,Calm,Calm,-,N/A,,Clear,0,2012-10-02 23:55:00
7:15 PM,64.4,50.0,59,29.88,10.0,Calm,Calm,-,N/A,,Clear,0,2012-10-03 00:15:00
7:35 PM,64.4,50.0,59,29.88,10.0,Calm,Calm,-,N/A,,Clear,0,2012-10-03 00:35:00
7:55 PM,62.6,50.0,63,29.88,10.0,Calm,Calm,-,N/A,,Clear,0,2012-10-03 00:55:00
8:15 PM,62.6,50.0,63,29.89,10.0,Calm,Calm,-,N/A,,Clear,0,2012-10-03 01:15:00
8:35 PM,62.6,50.0,63,29.89,10.0,Calm,Calm,-,N/A,,Clear,0,2012-10-03 01:35:00
8:55 PM,60.8,50.0,68,29.89,10.0,Calm,Calm,-,N/A,,Clear,0,2012-10-03 01:55:00
9:15 PM,59.0,51.8,77,29.90,10.0,Calm,Calm,-,N/A,,Clear,0,2012-10-03 02:15:00
9:55 PM,55.4,51.8,88,29.90,10.0,Calm,Calm,-,N/A,,Clear,0,2012-10-03 02:55:00
10:15 PM,55.4,51.8,88,29.90,10.0,Calm,Calm,-,N/A,,Clear,0,2012-10-03 03:15:00
10:35 PM,55.4,51.8,88,29.91,10.0,Calm,Calm,-,N/A,,Clear,0,2012-10-03 03:35:00
10:55 PM,55.4,51.8,88,29.91,10.0,South,3.5,-,N/A,,Clear,170,2012-10-03 03:55:00
11:15 PM,53.6,51.8,94,29.91,10.0,SSE,3.5,-,N/A,,Clear,160,2012-10-03 04:15:00
11:35 PM,51.8,50.0,94,29.91,10.0,Calm,Calm,-,N/A,,Clear,0,2012-10-03 04:35:00
11:55 PM,51.8,50.0,94,29.91,10.0,Calm,Calm,-,N/A,,Clear,0,2012-10-03 04:55:00